Location: Washington
(38.8950°N, 77.0370°W)
Time: 02:59:57
(UTC-05:00)

Amateur Radio Satellites - All Passes

Search period start: 20 January 2017 02:29
Search period end: 21 January 2017 02:29
Location: Washington, 38.8950°N, 77.0370°W

Satellite Date Start Highest point End Downlink Frequencies (MHz)
Time Altitude Azimuth
BEESAT 20 Jan 02:36:15 02:40:46 44° 260° (W) 02:45:20 436.000
MOZHAYETS 4 20 Jan 02:36:59 02:41:24 52° 73° (ENE) 02:45:52
SWISSCUBE 20 Jan 02:37:58 02:42:22 38° 262° (W) 02:46:49 437.505
PHONESAT 2.4 20 Jan 02:37:59 02:40:16 65° 162° (SSE) 02:42:33 2401.200-2431.200
BEESAT 2 20 Jan 02:38:40 02:42:25 37° 245° (WSW) 02:46:08 435.950
M-CUBED/EXP-1 PRIME 20 Jan 02:46:10 02:50:24 45° 68° (ENE) 02:54:22 437.505
Cosmos 2491 20 Jan 02:54:27 03:03:00 61° 281° (W) 03:11:38 435.465 / 435.565
CUSAT 1 20 Jan 03:04:03 03:08:50 60° 93° (E) 03:15:07 437.405
Oscar 19 20 Jan 03:04:17 03:07:37 18° 297° (WNW) 03:10:56 437.125/150
RS-15 20 Jan 03:06:26 03:15:44 24° 338° (NNW) 03:25:12 29.354- 29.394
Gurwin Techsat 1B 20 Jan 03:12:52 03:17:17 27° 293° (WNW) 03:21:41 435.225
KKS-1 20 Jan 03:20:59 03:25:17 50° 73° (ENE) 03:29:36 437.445
CUBESAT XI-V 20 Jan 03:21:56 03:25:41 24° 68° (ENE) 03:29:26 437.345
AUBIESAT-1 20 Jan 03:23:13 03:27:34 85° 250° (WSW) 03:31:39 437.475
ISS 20 Jan 03:28:26 03:30:30 16° 21° (NNE) 03:32:35 145.825
ITAMSAT 1 20 Jan 03:44:22 03:49:32 66° 287° (WNW) 03:54:42 435.822/435.867
Cosmos 2504 20 Jan 03:46:04 03:51:34 23° 277° (W) 03:56:57 435.465 / 435.565
DANDE 20 Jan 03:50:13 03:53:35 36° 89° (E) 03:57:59 436.750
AO-7 20 Jan 03:58:40 04:07:05 82° 107° (ESE) 04:15:25 29.400- 29.500
PHONESAT 2.4 20 Jan 04:12:08 04:14:23 52° 359° (N) 04:16:38 2401.200-2431.200
STARS 20 Jan 04:15:35 04:19:59 89° 273° (W) 04:24:22 437.465
MOZHAYETS 4 20 Jan 04:16:31 04:18:52 14° 269° (W) 04:21:14
M-CUBED/EXP-1 PRIME 20 Jan 04:22:15 04:24:56 16° 261° (W) 04:27:32 437.505
HORYU 2 20 Jan 04:26:11 04:26:38 10° 91° (E) 04:27:05 437.375
AIST 2 20 Jan 04:31:14 04:35:28 63° 57° (ENE) 04:39:40 435.215
CUSAT 1 20 Jan 04:47:59 04:51:36 18° 299° (WNW) 04:55:49 437.405
CUBESAT XI-V 20 Jan 04:58:39 05:02:52 33° 264° (W) 05:07:07 437.345
KKS-1 20 Jan 04:59:49 05:02:06 14° 268° (W) 05:04:23 437.445
Cosmos 2491 20 Jan 05:01:02 05:01:55 10° 303° (WNW) 05:02:49 435.465 / 435.565
GONETS M04 20 Jan 05:01:47 05:04:43 12° 58° (ENE) 05:07:39
ISS 20 Jan 05:04:09 05:07:24 84° 35° (NE) 05:10:39 145.825
BRITE-PL 20 Jan 05:05:50 05:10:45 75° 102° (ESE) 05:15:13 437.365/2234.400
GOMX 1 20 Jan 05:12:42 05:16:35 30° 96° (E) 05:20:17 467.674
LilacSat-2 20 Jan 05:24:55 05:27:23 16° 93° (E) 05:29:50 437.200
RS-15 20 Jan 05:25:52 05:34:37 21° 14° (NNE) 05:43:17 29.354- 29.394
DANDE 20 Jan 05:34:21 05:36:47 15° 298° (WNW) 05:39:37 436.750
Cubesat XI-IV 20 Jan 05:34:37 05:38:46 23° 94° (E) 05:42:55 437.490
NOAA 18 20 Jan 05:37:02 05:38:59 12° 90° (E) 05:40:56 137.9125
NOAA 15 20 Jan 05:44:58 05:49:36 30° 96° (E) 05:54:12 137.62
PHONESAT 2.4 20 Jan 05:46:14 05:48:32 76° 190° (S) 05:50:49 2401.200-2431.200
AO-7 20 Jan 05:52:50 05:58:53 23° 306° (NW) 06:04:56 29.400- 29.500
DOVE 4 20 Jan 05:54:00 05:57:44 31° 96° (E) 06:01:24 437.250
HORYU 2 20 Jan 05:59:09 06:03:34 67° 286° (WNW) 06:08:00 437.375
Cosmos 2499 20 Jan 06:06:00 06:12:27 35° 74° (ENE) 06:18:47 435.465 / 435.565
AIST 2 20 Jan 06:12:04 06:13:22 11° 253° (WSW) 06:14:41 435.215
O/OREOS (USA 219) 20 Jan 06:17:31 06:21:58 70° 109° (ESE) 06:26:26 437.305
CUTE-I 20 Jan 06:30:37 06:35:58 79° 103° (ESE) 06:41:19 437.470
STRAND 1 20 Jan 06:32:15 06:37:18 70° 75° (ENE) 06:42:24 437.568
BRITE-PL 20 Jan 06:46:50 06:48:24 11° 300° (WNW) 06:49:56 437.365/2234.400
GOMX 1 20 Jan 06:51:09 06:54:29 21° 293° (WNW) 06:57:41 467.674
GONETS M04 20 Jan 06:54:38 07:03:26 66° 80° (E) 07:12:13
LilacSat-2 20 Jan 06:58:16 07:01:43 32° 288° (WNW) 07:05:11 437.200
SO-50 20 Jan 07:06:58 07:10:57 27° 113° (ESE) 07:14:54 436.795
Cubesat XI-IV 20 Jan 07:13:58 07:18:58 43° 290° (WNW) 07:23:59 437.490
NOAA 18 20 Jan 07:14:45 07:20:13 80° 286° (WNW) 07:25:40 137.9125
CUTE 1.7 + AOD 2 20 Jan 07:15:43 07:19:35 32° 97° (E) 07:23:24 437.475
PHONESAT 2.4 20 Jan 07:21:07 07:22:20 13° 210° (SSW) 07:23:31 2401.200-2431.200
NOAA 15 20 Jan 07:24:38 07:29:19 32° 292° (WNW) 07:33:59 137.62
CINEMA 3 20 Jan 07:25:08 07:29:20 77° 102° (ESE) 07:33:38 145.822/145.860
DOVE 4 20 Jan 07:32:16 07:35:14 19° 293° (WNW) 07:38:09 437.250
RS-15 20 Jan 07:39:33 07:51:25 48° 46° (NE) 08:02:50 29.354- 29.394
CANX-2 20 Jan 07:44:32 07:48:52 83° 101° (E) 07:53:09 2200.000
HO-68 20 Jan 07:49:54 07:57:05 70° 104° (ESE) 08:04:12 435.675
SEEDS 20 Jan 07:56:24 08:00:39 63° 100° (E) 08:04:50 437.485
Cosmos 2499 20 Jan 07:59:08 08:05:29 36° 273° (W) 08:11:48 435.465 / 435.565
O/OREOS (USA 219) 20 Jan 08:00:09 08:01:53 12° 307° (NW) 08:03:36 437.305
COMPASS 1 20 Jan 08:02:35 08:06:40 47° 99° (E) 08:10:42 437.405
Oscar 11 20 Jan 08:12:47 08:15:44 18° 93° (E) 08:18:40 145.826/435.025
CUTE-I 20 Jan 08:12:49 08:15:18 13° 300° (WNW) 08:17:49 437.470
AAUSAT CUBESAT 2 20 Jan 08:14:13 08:18:18 48° 99° (E) 08:22:19 437.432
STRAND 1 20 Jan 08:14:54 08:16:57 12° 270° (W) 08:19:01 437.568
CUBEBUG 2 20 Jan 08:22:05 08:26:25 76° 102° (ESE) 08:30:54 437.445
PRISM 20 Jan 08:44:57 08:49:07 86° 256° (WSW) 08:53:19 437.425
SO-50 20 Jan 08:47:00 08:51:18 34° 309° (NW) 08:55:33 436.795
FUNcube-1 20 Jan 08:47:47 08:52:02 49° 99° (E) 08:56:23 145.935
UWE-3 20 Jan 08:51:11 08:55:33 81° 286° (WNW) 09:00:03 435.000/436.395/437.385
JAS-2 20 Jan 08:51:21 08:53:42 13° 57° (ENE) 08:56:08 435.910
CUTE 1.7 + AOD 2 20 Jan 08:51:59 08:55:12 21° 292° (WNW) 08:58:23 437.475
GONETS M04 20 Jan 08:52:44 08:59:28 25° 278° (W) 09:06:12
NOAA 18 20 Jan 08:58:57 08:59:57 11° 303° (WNW) 09:00:59 137.9125
UNISAT 6 20 Jan 09:03:31 09:07:30 40° 72° (ENE) 09:11:30 437.425
ZACube-1 20 Jan 09:10:37 09:15:01 83° 285° (WNW) 09:19:30 437.345
TIGRISAT 20 Jan 09:16:47 09:20:54 53° 74° (ENE) 09:25:03 435.000
HUMSAT D 20 Jan 09:24:55 09:28:09 21° 94° (E) 09:31:23 437.325/437.525
PCSat 20 Jan 09:26:00 09:31:05 39° 55° (NE) 09:36:08 145.827
ANTELSAT 20 Jan 09:31:49 09:36:04 86° 75° (ENE) 09:40:21 437.575/2403.000
DELFI C3 20 Jan 09:33:53 09:37:45 47° 99° (E) 09:41:35 145.870
SEEDS 20 Jan 09:34:32 09:35:46 11° 296° (WNW) 09:37:00 437.485
HO-68 20 Jan 09:38:51 09:44:06 23° 301° (WNW) 09:49:22 435.675
COMPASS 1 20 Jan 09:39:33 09:41:47 14° 294° (WNW) 09:43:59 437.405
Oscar 11 20 Jan 09:47:56 09:51:57 37° 289° (WNW) 09:55:59 145.826/435.025
AAUSAT CUBESAT 2 20 Jan 09:51:14 09:53:19 14° 295° (WNW) 09:55:22 437.432
RS-15 20 Jan 09:52:23 10:04:10 56° 249° (WSW) 10:15:29 29.354- 29.394
FUNcube-1 20 Jan 10:25:24 10:27:53 15° 294° (WNW) 10:30:24 145.935
JAS-2 20 Jan 10:32:33 10:37:49 82° 257° (WSW) 10:43:38 435.910
QB50P1 20 Jan 10:34:08 10:38:01 38° 72° (ENE) 10:41:54 145.935-145.965
POLYITAN 1 20 Jan 10:38:08 10:42:05 42° 73° (ENE) 10:46:04 437.675
QB50P2 20 Jan 10:39:17 10:43:19 47° 73° (ENE) 10:47:22 145.880/145.840
UNISAT 6 20 Jan 10:41:52 10:44:23 15° 267° (W) 10:46:56 437.425
TIGRISAT 20 Jan 10:56:27 10:57:55 11° 269° (W) 10:59:23 435.000
HUMSAT D 20 Jan 10:59:58 11:03:46 31° 289° (WNW) 11:07:34 437.325/437.525
POPSAT HIP 1 20 Jan 11:00:41 11:04:52 78° 75° (ENE) 11:09:04 437.405
BY70-1 20 Jan 11:01:16 11:04:34 66° 101° (E) 11:07:38 436.1900
PCSat 20 Jan 11:09:44 11:14:17 28° 252° (WSW) 11:18:47 145.827
DELFI C3 20 Jan 11:10:22 11:12:08 13° 295° (WNW) 11:13:52 145.870
DUCHIFAT 1 20 Jan 11:11:45 11:15:55 90° 154° (SSE) 11:20:06 145.980
CUBEBUG 1 20 Jan 11:12:13 11:15:39 23° 95° (E) 11:19:02 437.445
Cosmos 2491 20 Jan 11:13:21 11:16:04 12° 58° (ENE) 11:18:47 435.465 / 435.565
NANOSAT C BR1 20 Jan 11:17:13 11:21:22 71° 258° (WSW) 11:25:34 145.865
AISAT 20 Jan 11:28:10 11:31:35 22° 95° (E) 11:34:58 437.250
50 SAT 20 Jan 11:43:16 11:45:56 20° 95° (E) 11:48:34 437.505
BUGSAT 1 20 Jan 11:47:08 11:51:13 80° 76° (ENE) 11:55:16 437.445
ESTCUBE 1 20 Jan 11:48:49 11:53:21 78° 286° (WNW) 11:57:52 437.505/2401.250
VELOX 1 20 Jan 12:00:55 12:05:11 48° 100° (E) 12:09:24 145.980
QB50P1 20 Jan 12:11:18 12:13:54 16° 267° (W) 12:16:32 145.935-145.965
POLYITAN 1 20 Jan 12:15:48 12:18:04 14° 268° (W) 12:20:21 437.675
QB50P2 20 Jan 12:17:25 12:19:22 13° 268° (W) 12:21:18 145.880/145.840
SPROUT 20 Jan 12:30:39 12:34:55 81° 104° (ESE) 12:39:10 437.525
UKube-1 20 Jan 12:33:02 12:37:02 36° 98° (E) 12:40:59 .
DX 1 20 Jan 12:33:29 12:37:44 52° 100° (E) 12:41:56 434.975-435.025
Oscar 19 20 Jan 12:39:04 12:44:15 73° 74° (ENE) 12:49:27 437.125/150
CUBEBUG 1 20 Jan 12:48:11 12:51:54 29° 290° (WNW) 12:55:36 437.445
AO-85 20 Jan 12:50:39 12:54:11 21° 112° (ESE) 12:57:32 145.980
Gurwin Techsat 1B 20 Jan 12:52:22 12:57:29 51° 72° (ENE) 13:02:37 435.225
AIST 1 20 Jan 12:55:03 12:57:38 16° 86° (E) 13:00:14
AISAT 20 Jan 13:04:12 13:08:03 31° 290° (WNW) 13:11:52 437.250
Cosmos 2491 20 Jan 13:06:04 13:14:49 65° 80° (E) 13:23:33 435.465 / 435.565
AO-7 20 Jan 13:06:29 13:12:27 22° 54° (NE) 13:18:25 29.400- 29.500
YUBILEINY 20 Jan 13:11:46 13:19:08 31° 84° (E) 13:26:31 435.215
50 SAT 20 Jan 13:16:17 13:19:03 21° 290° (WNW) 13:21:47 437.505
ITAMSAT 1 20 Jan 13:23:28 13:27:10 20° 64° (ENE) 13:30:54 435.822/435.867
CUSAT 1 20 Jan 13:37:40 13:45:24 49° 74° (ENE) 13:52:29 437.405
VELOX 1 20 Jan 13:38:42 13:41:12 15° 295° (WNW) 13:43:42 145.980
TISAT 1 20 Jan 13:58:56 14:03:06 74° 284° (WNW) 14:07:15 437.305
ITUPSAT 1 20 Jan 14:03:18 14:06:59 22° 95° (E) 14:10:39 437.325
UKube-1 20 Jan 14:09:47 14:12:47 19° 294° (WNW) 14:15:46 .
DX 1 20 Jan 14:11:15 14:13:27 14° 296° (WNW) 14:15:39 434.975-435.025
Oscar 19 20 Jan 14:21:57 14:24:03 12° 270° (W) 14:26:10 437.125/150
DANDE 20 Jan 14:26:08 14:33:35 44° 75° (ENE) 14:41:27 436.750
Cosmos 2504 20 Jan 14:26:50 14:35:11 52° 90° (E) 14:43:05 435.465 / 435.565
AO-85 20 Jan 14:29:55 14:34:23 41° 306° (NW) 14:38:33 145.980
AIST 1 20 Jan 14:30:45 14:34:51 39° 282° (WNW) 14:38:57
Gurwin Techsat 1B 20 Jan 14:34:03 14:37:41 19° 267° (W) 14:41:21 435.225
MOZHAYETS 4 20 Jan 14:34:45 14:37:06 14° 91° (E) 14:39:26
BEESAT 20 Jan 14:37:14 14:41:53 50° 100° (E) 14:46:31 436.000
SWISSCUBE 20 Jan 14:38:49 14:43:34 58° 101° (E) 14:48:17 437.505
BRITE-PL 20 Jan 14:40:40 14:41:47 11° 59° (ENE) 14:42:55 437.365/2234.400
O/OREOS (USA 219) 20 Jan 14:51:42 14:53:13 11° 53° (NE) 14:54:44 437.305
AO-7 20 Jan 14:55:50 15:04:13 85° 252° (WSW) 15:12:39 29.400- 29.500
ITAMSAT 1 20 Jan 15:01:18 15:06:16 48° 260° (W) 15:11:16 435.822/435.867
Cosmos 2491 20 Jan 15:04:10 15:10:52 25° 278° (W) 15:17:36 435.465 / 435.565
YUBILEINY 20 Jan 15:06:51 15:15:25 54° 282° (WNW) 15:24:04 435.215
KKS-1 20 Jan 15:16:24 15:16:44 10° 90° (E) 15:17:04 437.445
CUSAT 1 20 Jan 15:20:02 15:27:01 35° 273° (W) 15:33:28 437.405
SO-50 20 Jan 15:39:28 15:42:44 19° 45° (NE) 15:45:58 436.795
ITUPSAT 1 20 Jan 15:40:28 15:44:54 37° 290° (WNW) 15:49:18 437.325
BEESAT 3 20 Jan 15:43:55 15:47:27 35° 115° (ESE) 15:51:03 437.485
JUGNU 20 Jan 15:45:27 15:47:11 11° 180° (S) 15:48:56 437.505
M-CUBED/EXP-1 PRIME 20 Jan 16:00:55 16:03:55 30° 103° (ESE) 16:06:50 437.505
STARS 20 Jan 16:07:07 16:10:05 18° 94° (E) 16:13:01 437.465
DANDE 20 Jan 16:08:56 16:16:13 42° 270° (W) 16:23:52 436.750
MOZHAYETS 4 20 Jan 16:10:01 16:14:34 55° 286° (WNW) 16:19:05
BRITE-PL 20 Jan 16:13:38 16:19:17 75° 76° (ENE) 16:24:57 437.365/2234.400
CUTE-I 20 Jan 16:14:24 16:17:09 14° 61° (ENE) 16:19:54 437.470
BEESAT 20 Jan 16:16:10 16:19:15 17° 296° (WNW) 16:22:20 436.000
SWISSCUBE 20 Jan 16:18:09 16:20:49 15° 297° (WNW) 16:23:31 437.505
GOMX 1 20 Jan 16:18:22 16:23:13 35° 71° (ENE) 16:27:54 467.674
Cosmos 2504 20 Jan 16:21:12 16:28:45 33° 287° (WNW) 16:36:00 435.465 / 435.565
BEESAT 2 20 Jan 16:28:30 16:32:16 47° 117° (ESE) 16:36:07 435.950
O/OREOS (USA 219) 20 Jan 16:28:40 16:33:10 75° 250° (WSW) 16:37:40 437.305
AUBIESAT-1 20 Jan 16:37:16 16:40:37 83° 107° (ESE) 16:43:53 437.475
KKS-1 20 Jan 16:49:18 16:53:42 66° 286° (WNW) 16:58:05 437.445
AO-7 20 Jan 16:53:34 16:58:02 15° 270° (W) 17:02:31 29.400- 29.500
Cubesat XI-IV 20 Jan 16:55:16 16:59:59 33° 68° (ENE) 17:04:42 437.490
HORYU 2 20 Jan 16:55:32 16:59:57 86° 261° (W) 17:04:22 437.375
CUBESAT XI-V 20 Jan 16:55:46 17:00:28 68° 102° (ESE) 17:05:05 437.345
DOVE 4 20 Jan 16:57:33 17:01:59 32° 71° (ENE) 17:06:12 437.250
NOAA 18 20 Jan 17:00:57 17:05:08 23° 64° (ENE) 17:09:19 137.9125
NOAA 15 20 Jan 17:03:37 17:08:34 43° 70° (ENE) 17:13:34 137.62
SRMSAT 20 Jan 17:15:20 17:16:46 11° 174° (S) 17:18:12 437.500
SO-50 20 Jan 17:19:07 17:23:29 50° 243° (WSW) 17:27:46 436.795
BEESAT 3 20 Jan 17:22:15 17:25:10 20° 312° (NW) 17:28:06 437.485
M-CUBED/EXP-1 PRIME 20 Jan 17:36:36 17:38:07 13° 299° (WNW) 17:39:38 437.505
LilacSat-2 20 Jan 17:38:13 17:41:59 81° 258° (WSW) 17:45:47 437.200
STARS 20 Jan 17:42:30 17:46:33 38° 289° (WNW) 17:50:34 437.465
CUTE-I 20 Jan 17:51:15 17:56:33 73° 257° (WSW) 18:01:52 437.470
BRITE-PL 20 Jan 17:55:16 17:58:13 14° 271° (W) 18:01:11 437.365/2234.400
GOMX 1 20 Jan 17:56:37 18:01:15 28° 265° (W) 18:05:44 467.674
GONETS M04 20 Jan 18:03:28 18:07:03 13° 75° (ENE) 18:10:39
CUTE 1.7 + AOD 2 20 Jan 18:07:38 18:10:44 20° 68° (ENE) 18:13:51 437.475
BEESAT 2 20 Jan 18:07:46 18:10:19 16° 314° (NW) 18:12:54 435.950
HO-68 20 Jan 18:16:57 18:23:42 46° 67° (ENE) 18:30:29 435.675
CINEMA 3 20 Jan 18:25:18 18:29:40 59° 76° (ENE) 18:33:53 145.822/145.860
AIST 2 20 Jan 18:28:43 18:31:26 17° 110° (ESE) 18:34:09 435.215
CUBESAT XI-V 20 Jan 18:35:16 18:37:13 12° 297° (WNW) 18:39:09 437.345
DOVE 4 20 Jan 18:35:27 18:39:37 26° 264° (W) 18:43:38 437.250
Cubesat XI-IV 20 Jan 18:35:28 18:40:01 29° 264° (W) 18:44:36 437.490
CANX-2 20 Jan 18:35:45 18:39:49 48° 74° (ENE) 18:43:56 2200.000
NOAA 18 20 Jan 18:40:09 18:45:27 47° 260° (W) 18:50:44 137.9125
Cosmos 2499 20 Jan 18:40:37 18:47:52 33° 87° (E) 18:54:42 435.465 / 435.565
NOAA 15 20 Jan 18:44:25 18:48:29 22° 266° (W) 18:52:36 137.62
STRAND 1 20 Jan 18:44:29 18:48:46 26° 95° (E) 18:53:03 437.568
SEEDS 20 Jan 18:46:43 18:50:33 36° 72° (ENE) 18:54:27 437.485
COMPASS 1 20 Jan 18:52:08 18:55:39 27° 70° (ENE) 18:59:12 437.405
AAUSAT CUBESAT 2 20 Jan 19:03:13 19:06:45 27° 70° (ENE) 19:10:18 437.432
SRMSAT 20 Jan 19:03:29 19:05:01 11° 185° (S) 19:06:32 437.500
Oscar 11 20 Jan 19:07:39 19:09:26 12° 64° (ENE) 19:11:13 145.826/435.025
CUBEBUG 2 20 Jan 19:19:00 19:23:02 51° 74° (ENE) 19:27:04 437.445
FUNcube-1 20 Jan 19:42:22 19:45:59 30° 71° (ENE) 19:49:38 145.935
CUTE 1.7 + AOD 2 20 Jan 19:42:31 19:46:19 32° 263° (W) 19:50:11 437.475
UWE-3 20 Jan 19:46:52 19:50:58 67° 75° (ENE) 19:55:05 435.000/436.395/437.385
GONETS M04 20 Jan 19:53:37 20:02:17 78° 94° (E) 20:11:03
ZACube-1 20 Jan 20:05:05 20:09:09 63° 75° (ENE) 20:13:16 437.345
HO-68 20 Jan 20:05:12 20:11:30 33° 263° (W) 20:17:52 435.675
AIST 2 20 Jan 20:05:40 20:09:33 40° 306° (NW) 20:13:31 435.215
CINEMA 3 20 Jan 20:05:52 20:07:06 11° 269° (W) 20:08:19 145.822/145.860
CANX-2 20 Jan 20:13:54 20:15:56 13° 269° (W) 20:17:58 2200.000
HUMSAT D 20 Jan 20:16:28 20:18:08 12° 64° (ENE) 20:19:49 437.325/437.525
DELFI C3 20 Jan 20:18:31 20:21:42 23° 69° (ENE) 20:24:55 145.870
STRAND 1 20 Jan 20:23:19 20:27:58 35° 291° (WNW) 20:32:35 437.568
SEEDS 20 Jan 20:23:31 20:26:20 17° 267° (W) 20:29:12 437.485
COMPASS 1 20 Jan 20:27:48 20:31:08 23° 265° (W) 20:34:31 437.405
PRISM 20 Jan 20:29:12 20:31:17 14° 92° (E) 20:33:21 437.425
Cosmos 2499 20 Jan 20:32:36 20:40:42 48° 283° (WNW) 20:48:17 435.465 / 435.565
AAUSAT CUBESAT 2 20 Jan 20:38:52 20:42:10 22° 265° (W) 20:45:28 437.432
Oscar 11 20 Jan 20:40:48 20:45:02 58° 259° (W) 20:49:19 145.826/435.025
CUBEBUG 2 20 Jan 20:58:32 20:59:58 11° 269° (W) 21:01:22 437.445
TIGRISAT 20 Jan 21:10:55 21:12:52 13° 92° (E) 21:14:49 435.000
FUNcube-1 20 Jan 21:19:18 21:22:16 19° 266° (W) 21:25:16 145.935
AO-85 20 Jan 21:23:47 21:25:18 12° 43° (NE) 21:26:50 145.980
ANTELSAT 20 Jan 21:25:05 21:28:21 20° 94° (E) 21:31:40 437.575/2403.000
JAS-2 20 Jan 21:42:51 21:47:37 18° 90° (E) 21:52:32 435.910
ISS 20 Jan 21:43:02 21:46:12 50° 138° (SE) 21:49:22 145.825
HUMSAT D 20 Jan 21:49:16 21:53:15 52° 260° (W) 21:57:18 437.325/437.525
DELFI C3 20 Jan 21:53:07 21:56:24 24° 265° (W) 21:59:42 145.870
GONETS M04 20 Jan 21:53:51 22:00:04 21° 295° (WNW) 22:06:23
RS-15 20 Jan 22:02:52 22:12:23 30° 102° (ESE) 22:22:11 29.354- 29.394
PRISM 20 Jan 22:02:52 22:06:47 43° 288° (WNW) 22:10:38 437.425
CUBEBUG 1 20 Jan 22:07:27 22:10:22 18° 66° (ENE) 22:13:17 437.445
AISAT 20 Jan 22:24:42 22:27:42 18° 66° (ENE) 22:30:42 437.250
UNISAT 6 20 Jan 22:32:10 22:36:36 73° 284° (WNW) 22:41:08 437.425
BY70-1 20 Jan 22:44:33 22:47:19 35° 262° (W) 22:50:18 436.1900
TIGRISAT 20 Jan 22:45:29 22:49:49 56° 286° (WNW) 22:54:15 435.000
ESTCUBE 1 20 Jan 22:46:37 22:51:08 81° 78° (ENE) 22:55:42 437.505/2401.250
POPSAT HIP 1 20 Jan 22:48:09 22:50:18 14° 92° (E) 22:52:25 437.405
VELOX 1 20 Jan 22:56:47 23:00:52 37° 71° (ENE) 23:04:57 145.980
DUCHIFAT 1 20 Jan 22:58:11 23:00:40 15° 93° (E) 23:03:09 145.980
ANTELSAT 20 Jan 23:01:04 23:05:07 36° 289° (WNW) 23:09:15 437.575/2403.000
AO-85 20 Jan 23:02:16 23:06:09 68° 241° (WSW) 23:10:02 145.980
NANOSAT C BR1 20 Jan 23:03:27 23:06:31 19° 94° (E) 23:09:34 145.865
ISS 20 Jan 23:20:16 23:22:52 21° 334° (NNW) 23:25:27 145.825
SPROUT 20 Jan 23:22:32 23:26:39 50° 73° (ENE) 23:30:46 437.525
YUBILEINY 20 Jan 23:24:40 23:28:38 13° 60° (ENE) 23:32:34 435.215
JAS-2 20 Jan 23:25:52 23:33:09 85° 285° (WNW) 23:40:58 435.910
UKube-1 20 Jan 23:26:24 23:30:02 27° 69° (ENE) 23:33:41 .
DX 1 20 Jan 23:27:37 23:31:40 38° 71° (ENE) 23:35:43 434.975-435.025
BUGSAT 1 20 Jan 23:31:58 23:33:31 12° 92° (E) 23:35:05 437.445
CUBEBUG 1 20 Jan 23:42:09 23:46:19 41° 262° (W) 23:50:29 437.445
50 SAT 20 Jan 23:48:35 23:52:08 68° 259° (WSW) 23:55:43 437.505
QB50P1 20 Jan 23:55:06 23:59:20 87° 102° (ESE) 00:03:34 145.935-145.965
POLYITAN 1 20 Jan 23:59:24 00:03:39 83° 281° (W) 00:07:53 437.675
AISAT 20 Jan 23:59:39 00:03:50 40° 261° (W) 00:08:02 437.250
QB50P2 21 Jan 00:00:41 00:04:55 75° 283° (WNW) 00:09:08 145.880/145.840
BEESAT 3 21 Jan 00:02:21 00:05:00 17° 47° (NE) 00:07:39 437.485
PCSat 21 Jan 00:06:13 00:11:20 45° 112° (ESE) 00:16:29 145.827
RS-15 21 Jan 00:11:47 00:23:38 76° 303° (WNW) 00:36:04 29.354- 29.394
Cosmos 2491 21 Jan 00:15:06 00:18:37 13° 75° (ENE) 00:22:08 435.465 / 435.565
POPSAT HIP 1 21 Jan 00:22:14 00:26:17 46° 287° (WNW) 00:30:19 437.405
Cosmos 2504 21 Jan 00:23:41 00:27:12 14° 62° (ENE) 00:30:40 435.465 / 435.565
DUCHIFAT 1 21 Jan 00:32:34 00:36:30 40° 288° (WNW) 00:40:26 145.980
VELOX 1 21 Jan 00:34:16 00:37:24 19° 266° (W) 00:40:34 145.980
NANOSAT C BR1 21 Jan 00:38:31 00:42:16 32° 289° (WNW) 00:46:00 145.865
AIST 1 21 Jan 00:38:47 00:42:49 40° 78° (ENE) 00:46:50
BEESAT 2 21 Jan 00:47:43 00:50:52 21° 49° (NE) 00:54:00 435.950
TISAT 1 21 Jan 00:48:50 00:52:59 67° 75° (ENE) 00:57:07 437.305
Oscar 19 21 Jan 00:52:26 00:56:50 28° 96° (E) 01:01:11 437.125/150
PHONESAT 2.4 21 Jan 00:58:17 00:59:54 17° 152° (SSE) 01:01:32 2401.200-2431.200
SPROUT 21 Jan 01:01:00 01:02:50 12° 269° (W) 01:04:40 437.525
UKube-1 21 Jan 01:02:27 01:05:59 25° 264° (W) 01:09:34 .
DX 1 21 Jan 01:05:02 01:07:58 18° 266° (W) 01:10:54 434.975-435.025
BUGSAT 1 21 Jan 01:05:15 01:09:07 47° 287° (WNW) 01:13:01 437.445
ITUPSAT 1 21 Jan 01:09:01 01:12:41 23° 66° (ENE) 01:16:22 437.325
Gurwin Techsat 1B 21 Jan 01:10:29 01:14:34 22° 94° (E) 01:18:38 435.225
JAS-2 21 Jan 01:12:58 01:17:16 17° 301° (WNW) 01:21:45 435.910
YUBILEINY 21 Jan 01:18:18 01:27:09 73° 81° (E) 01:35:53 435.215
MOZHAYETS 4 21 Jan 01:36:27 01:38:12 12° 63° (ENE) 01:39:57
BEESAT 3 21 Jan 01:39:01 01:42:51 46° 244° (WSW) 01:46:40 437.485
BEESAT 21 Jan 01:42:14 01:46:49 50° 72° (ENE) 01:51:25 436.000
SWISSCUBE 21 Jan 01:43:50 01:48:29 58° 73° (ENE) 01:53:11 437.505
PCSat 21 Jan 01:50:26 01:54:55 26° 310° (NW) 01:59:26 145.827
Cosmos 2491 21 Jan 02:05:12 02:13:53 78° 94° (E) 02:22:36 435.465 / 435.565
Cosmos 2504 21 Jan 02:14:22 02:21:47 88° 87° (E) 02:28:57 435.465 / 435.565
AIST 1 21 Jan 02:17:43 02:20:00 14° 274° (W) 02:22:17
